TimeCST,TemperatureF,Dew PointF,Humidity,Sea Level PressureIn,VisibilityMPH,Wind Direction,Wind SpeedMPH,Gust SpeedMPH,PrecipitationIn,Events,Conditions,WindDirDegrees,DateUTC
12:53 AM,61.0,55.9,83,29.94,10.0,SSW,10.4,17.3,0.01,,Mostly Cloudy,200,2013-01-11 06:53:00
1:53 AM,59.0,55.0,87,29.96,10.0,SSW,8.1,-,0.01,,Partly Cloudy,200,2013-01-11 07:53:00
2:53 AM,57.9,55.0,90,29.97,10.0,SSW,5.8,-,0.02,,Clear,210,2013-01-11 08:53:00
3:25 AM,57.2,55.4,94,29.99,10.0,SSW,5.8,-,N/A,,Mostly Cloudy,210,2013-01-11 09:25:00
3:53 AM,55.9,54.0,93,29.98,10.0,SSW,5.8,-,0.01,,Scattered Clouds,200,2013-01-11 09:53:00
4:53 AM,54.0,53.1,97,29.97,10.0,South,4.6,-,0.01,,Clear,190,2013-01-11 10:53:00
5:53 AM,53.1,52.0,96,29.99,10.0,South,4.6,-,0.01,,Clear,190,2013-01-11 11:53:00
6:53 AM,51.1,50.0,96,29.99,10.0,South,6.9,-,0.01,,Clear,190,2013-01-11 12:53:00
7:53 AM,51.1,50.0,96,30.01,10.0,South,4.6,-,0.01,,Clear,190,2013-01-11 13:53:00
8:53 AM,55.9,51.1,84,30.03,10.0,SW,8.1,-,N/A,,Clear,220,2013-01-11 14:53:00
9:53 AM,57.9,52.0,81,30.03,10.0,South,9.2,-,0.01,,Clear,190,2013-01-11 15:53:00
10:53 AM,59.0,50.0,72,30.02,10.0,South,13.8,-,0.01,,Clear,190,2013-01-11 16:53:00
11:18 AM,60.8,50.0,68,30.02,0.5,SSW,12.7,-,N/A,,Haze,200,2013-01-11 17:18:00
11:26 AM,60.8,50.0,68,30.02,0.2,SSW,9.2,-,N/A,,Haze,200,2013-01-11 17:26:00
11:39 AM,60.8,48.2,63,30.01,0.8,SSW,11.5,19.6,0.01,,Haze,210,2013-01-11 17:39:00
11:41 AM,60.8,48.2,63,30.01,4.0,SSW,12.7,19.6,0.01,,Haze,200,2013-01-11 17:41:00
11:53 AM,61.0,50.0,67,30.00,10.0,SSW,12.7,18.4,0.01,,Clear,210,2013-01-11 17:53:00
12:53 PM,62.1,50.0,65,29.98,10.0,SSW,10.4,-,0.14,,Clear,200,2013-01-11 18:53:00
2:53 PM,63.0,52.0,67,29.96,10.0,South,15.0,-,N/A,,Clear,190,2013-01-11 20:53:00
3:53 PM,63.0,52.0,67,29.94,10.0,South,11.5,-,N/A,,Clear,180,2013-01-11 21:53:00
4:53 PM,60.1,53.1,78,29.94,10.0,South,10.4,-,N/A,,Clear,180,2013-01-11 22:53:00
5:53 PM,57.0,51.1,81,29.93,10.0,South,10.4,-,N/A,,Clear,180,2013-01-11 23:53:00
6:53 PM,54.0,50.0,86,29.93,10.0,South,5.8,-,N/A,,Clear,190,2013-01-12 00:53:00
7:53 PM,54.0,50.0,86,29.93,10.0,South,8.1,-,N/A,,Clear,180,2013-01-12 01:53:00
8:53 PM,57.0,51.1,81,29.93,10.0,South,10.4,-,N/A,,Clear,180,2013-01-12 02:53:00
9:53 PM,57.9,53.1,84,29.93,10.0,South,10.4,-,N/A,,Scattered Clouds,180,2013-01-12 03:53:00
10:36 PM,60.8,57.2,88,29.92,10.0,South,15.0,-,N/A,,Mostly Cloudy,180,2013-01-12 04:36:00
10:48 PM,62.6,59.0,88,29.92,10.0,South,16.1,24.2,N/A,,Overcast,180,2013-01-12 04:48:00
11:53 PM,63.0,61.0,93,29.93,10.0,SSW,15.0,23.0,N/A,,Overcast,200,2013-01-12 05:53:00